Tracking 19827 objects as of 21-Aug-2019
HD Live streaming from Space Station
objects crossing your sky now

COSMOS 680

Track COSMOS 680 now!
10-day predictions
COSMOS 680 is classified as:


NORAD ID: 7438
Int'l Code: 1974-072D
Perigee: 1,473.1 km
Apogee: 1,498.6 km
Inclination: 74.0 °
Period: 115.5 minutes
Semi major axis: 7856 km
RCS: 0.7018 m2 (medium)
Launch date: September 19, 1974
Source: Commonwealth of Independent States (former USSR) (CIS)
Launch site: PLESETSK MISSILE AND SPACE COMPLEX (PKMTR)
aabbcc
Your satellite tracking list
Your tracking list is empty




NASA's NSSDC Master Catalog

Two Line Element Set (TLE):
1  7438U 74072D   19204.76113943 -.00000001  00000-0  10000-3 0  9998
2  7438  74.0323 215.4721 0016245 274.9528  84.9623 12.46604871 40825
Source of the keplerian elements: AFSPC